Home   Weather   Adamstown   Past weeks

Flag for Pitcairn Islands Past Weather in Adamstown, Pitcairn Islands — Yesterday and Last 2 Weeks

Now
77 °F

Partly sunny.


Feels Like: 79 °F
Forecast: 71 / 75 °F
Wind: 3 mph from Northeast

Location: Rikitea

Current Time: Sep 26, 2016 at 2:34:58 PM

Latest Report: Sep 26, 2016 at 1:00 PM


Visibility: 19 mi

Pressure: 30.12 "Hg

Humidity: 79%

Dew Point: 70 °F

Location of AdamstownLocation

Past Weather in Adamstown — Graph

°F

Adamstown Temperature Yesterday

Maximum temperature yesterday: 78 °F (at 12:00 PM)
Minimum temperature yesterday: 69 °F (at 3:00 AM)
Average temperature yesterday: 73 °F

High & Low Weather Summary for the Past Weeks

 TemperatureHumidityPressure
High78 °F (Sep 13, 12:00 PM)97% (Sep 14, 10:00 AM)30.24 "Hg (Sep 14, 10:00 AM)
Low66 °F (Sep 17, 10:00 AM)52% (Sep 18, 10:00 AM)30.01 "Hg (Sep 23, 5:00 AM)
Average71 °F75%30.14 "Hg
* Reported Sep 11 1:00 PM — Sep 26 1:00 PM, Adamstown, Weather by CustomWeather, © 2016

Note: Actual official high and low records may vary slightly from our data, if they occured in-between our weather recording intervals... More about our weather records

Advertising

Adamstown Weather History for the Previous 24 Hours

Scroll right to see more
 ConditionsComfort  
Time TempWeatherWind HumidityBarometerVisibility
1:00 PM
Mon, Sep 26
77 °FPartly sunny.3 mph79%30.12 "Hg19 mi
12:00 PM76 °FOvercast.3 mph82%30.15 "Hg19 mi
11:00 AM77 °FPartly sunny.5 mph76%30.16 "Hg19 mi
10:00 AM77 °FPartly sunny.3 mph83%30.16 "Hg19 mi
9:00 AM72 °FPartly sunny.5 mph91%30.16 "Hg19 mi
8:00 AM72 °FMild.3 mph94%30.14 "HgN/A
6:00 AM72 °FMild.5 mph92%30.10 "HgN/A
5:00 AM71 °FMild.5 mph92%30.09 "HgN/A
4:00 AM71 °FMild.3 mph90%30.10 "HgN/A
3:00 AM71 °FMild.6 mph91%30.09 "HgN/A
2:00 AM71 °FMild.7 mph92%30.11 "HgN/A
1:00 AM71 °FMild.8 mph91%30.13 "HgN/A
12:00 AM71 °FMild.7 mph91%30.15 "HgN/A
11:00 PM
Sun, Sep 25
71 °FMild.6 mph90%30.16 "HgN/A
10:00 PM72 °FMild.5 mph88%30.17 "HgN/A
9:00 PM71 °FMild.5 mph87%30.16 "HgN/A
8:00 PM72 °FMild.5 mph86%30.14 "HgN/A
7:00 PM72 °FMild.5 mph85%30.12 "HgN/A
6:00 PM72 °FPassing clouds.7 mph87%30.10 "Hg19 mi
5:00 PM72 °FPartly sunny.7 mph88%30.09 "Hg9 mi
4:00 PM73 °FPartly sunny.6 mph86%30.10 "Hg9 mi
3:00 PM74 °FMild.6 mph79%30.10 "HgN/A
2:00 PM76 °FPartly sunny.6 mph75%30.11 "Hg25 mi
Weather by CustomWeather, © 2016

See weather overviewHow to use our weather pages